Preview of NWS' New Version of Forecast
This preview is not operational and should not be used for support decisions.

Regional Weather Roundup (RWR)

Issued by Gray - Portland, ME (GYX)

                            
558 
ASUS41 KGYX 191005
RWRGYX
WEATHER ROUNDUP FOR MAINE AND NEW HAMPSHIRE
NATIONAL WEATHER SERVICE GRAY ME
500 AM EST MON FEB 19 2018

MEZ002-005-006-010-012-015-018-020-021-024-026-027-029-191100-
MAINE
  
CITY           SKY/WX    TMP DP  RH WIND       PRES   REMARKS
PORTLAND       FAIR      19  17  92 W3        30.53R                  
SANFORD        FAIR       7   5  91 W5        30.53R                  
BAR HARBOR     FAIR      16  14  92 CALM      30.55R                  
WISCASSET      FAIR      15  13  91 CALM      30.54S                  
ROCKLAND       FAIR      17  15  92 CALM      30.54S                  
FRYEBURG       FAIR       9   8  96 CALM      30.50R                  
LEWISTONAUBURN FAIR      10   7  87 CALM      30.51S                  
AUGUSTA        FAIR      20  16  84 CALM      30.50F                  
WATERVILLE     FAIR      18  15  88 CALM      30.46S                  
BANGOR         FAIR       6   6 100 SE3       30.51S                  
GREENVILLE       N/A     17  13  84 CALM      30.38S                  
MILLINOCKET    FAIR       4   2  91 CALM      30.50R                  
HOULTON        FAIR       9   6  88 S5        30.46R                  
PRESQUE ISLE   FAIR       1  -3  83 CALM      30.45R                  
FRENCHVILLE    MOCLDY    13  10  88 CALM      30.38R                  
CARIBOU        FAIR      11   6  81 CALM      30.42R                  
$$

NHZ002-005-008-009-011-012-014-191100-
NEW HAMPSHIRE
  
CITY           SKY/WX    TMP DP  RH WIND       PRES   REMARKS
PORTSMOUTH     CLEAR     20  18  92 CALM      30.53R                  
ROCHESTER      FAIR      18  15  88 NW5       30.52R                  
NASHUA         FAIR      17  16  95 CALM      30.54R                  
MANCHESTER     FAIR      20  16  84 CALM      30.51R                  
CONCORD        FAIR      15  11  83 CALM      30.51R                  
LACONIA        FAIR      10   7  87 CALM      30.51R                  
PLYMOUTH       FAIR       7   4  90 CALM      30.52R                  
BERLIN         FAIR       2  -3  80 CALM      30.42R                  
WHITEFIELD     FAIR       2   0  91 CALM      30.40S                  
JAFFREY        FAIR      13  12  96 S3        30.48R                  
KEENE          FAIR      15  12  88 CALM      30.52R                  
LEBANON        FAIR      11   8  88 CALM      30.46R                  
MT WASHINGTON  PTCLDY    19  -6  32 SW37G45     N/A  WCI  -1          
$$

VTZ005-007-008-191100-
VERMONT
  
CITY           SKY/WX    TMP DP  RH WIND       PRES   REMARKS
ST JOHNSBURY     N/A     10   8  92 MISG      30.43R                  
MONTPELIER     FAIR      26  19  74 S10       30.42R WCI  16          
BURLINGTON     FAIR      33  19  56 S13       30.37S                  
$$

MAZ007-012-024-CTZ003-RIZ002-NYZ038-NYZ072-191100-
SOUTHERN NEW ENGLAND AND NY
  
CITY           SKY/WX    TMP DP  RH WIND       PRES   REMARKS
BOSTON         FAIR      29  23  78 SW5       30.54R                  
WORCESTER      FAIR      25  18  74 S6        30.48R                  
NANTUCKET      FAIR      37  36  96 S13       30.56S                  
PROVIDENCE     FAIR      25  23  92 CALM      30.55R                  
HARTFORD       FAIR      20  18  92 CALM      30.53R                  
ALBANY         FAIR      30  19  63 S13       30.45S WCI  20          
NEW YORK CITY  MOCLDY    36  30  79 SE6       30.51F                  
$$

ANZ081-ANZ082-ANZ150-NHZ014-MEZ023>029-191100-
COASTAL MARINE OBSERVATIONS
  
STATION/POSITION TIME  TEMP    WIND        PRES    WAVE
                       AIR SEA DIR/SP/G            HT/PER
                 (UTC) (F)     (DEG/KT/KT) (MB)    (FT/S)
MOUNT DESERT ROC 1000   35     160/  3/  5 1034.6R
MATINICUS ROCK   0900   35     160/  5/  6 1033.5R
ISLE OF SHOALS   0900   36     200/  8/  9 1033.0F
JEFFREYS LEDGE   0936      42                N/A     4/10
GEORGES BANK BUO 0850   39 58              1023.3   19/12
$$

.............KEY..............
   WCI - WIND CHILL
   TC  - TEMPERATURE IN CELSIUS
   VSB - VISIBILITY IN MILES
   HX  - HEAT INDEX
   FAIR- INDICATES FEW OR NO CLOUDS BELOW 12,000 FT, WITH NO 
         SIGNIFICANT WEATHER AND/OR OBSTRUCTIONS TO VISIBILITY.